Flag for Canada Weather past 2 weeks in Red Deer, Alberta, Canada

Now
70 °F

Scattered clouds.


Feels Like: 70 °F
Forecast: 38 / 67 °F
Wind: 2 mph from Northwest

Location: Red Deer

Current Time: Sep 19, 2014 at 8:05:14 PM

Latest Report: Sep 19, 2014 at 7:00 PM


Visibility: 15 mi

Pressure: 29.80 "Hg

Humidity: 38%

Dew point: 43 °F

Location of Red DeerLocation

Historic Weather in Red Deer — Graph

°F

Red Deer temperature yesterday

Maximum temperature yesterday: 66 °F (at 1:00 PM)
Minimum temperature yesterday: 50 °F (at 3:00 AM)
Average temperature yesterday: 56 °F

Past Weeks' High & Low Weather Summary

 TemperatureHumidityPressure
High77 °F (Sep 7, 2:00 PM)100% (Sep 5, 7:00 AM)30.69 "Hg (Sep 5, 7:00 AM)
Low25 °F (Sep 11, 5:00 AM)24% (Sep 17, 3:00 PM)29.57 "Hg (Sep 18, 6:00 AM)
Average48 °F76%30.11 "Hg
* Reported Sep 4 7:00 PM — Sep 19 7:00 PM, Red Deer, Weather by CustomWeather, © 2014

Note: Actual official high and low records may vary slightly from our data, if they occured in-between our weather recording intervals... More about our weather records

Advertising

Red Deer weather history for previous 24 hours

 ConditionsComfort  
Time TempWeatherWind HumidityBarometerVisibility
7:00 PM
Sep 19
70 °FScattered clouds.2 mph38%29.80 "Hg15 mi
6:00 PM72 °FScattered clouds.6 mph36%29.76 "Hg15 mi
5:00 PM72 °FScattered clouds.9 mph36%29.76 "Hg15 mi
4:00 PM75 °FBroken clouds.13 mph31%29.74 "Hg15 mi
3:00 PM70 °FPartly sunny.7 mph35%29.76 "Hg15 mi
2:00 PM73 °FPartly sunny.No wind33%29.75 "Hg15 mi
1:00 PM70 °FPartly sunny.8 mph43%29.76 "Hg15 mi
12:00 PM66 °FPartly sunny.6 mph52%29.78 "Hg15 mi
11:00 AM61 °FPartly sunny.3 mph63%29.78 "Hg15 mi
10:00 AM54 °FScattered clouds.3 mph82%29.79 "Hg15 mi
9:00 AM48 °FPartly sunny.6 mph94%29.78 "Hg10 mi
8:00 AM46 °FPassing clouds.2 mph100%29.76 "Hg10 mi
7:00 AM43 °FFog.5 mph100%29.76 "Hg6 mi
6:00 AM43 °FPassing clouds.5 mph93%29.75 "Hg15 mi
5:00 AM46 °FPassing clouds.5 mph93%29.73 "Hg15 mi
4:00 AM48 °FPassing clouds.10 mph94%29.72 "Hg15 mi
3:00 AM48 °FPassing clouds.3 mph87%29.70 "Hg15 mi
2:00 AM52 °FMostly cloudy.2 mph88%29.69 "Hg15 mi
1:00 AM55 °FMostly cloudy.13 mph82%29.70 "Hg15 mi
12:00 AM54 °FMostly cloudy.6 mph88%29.66 "Hg15 mi
11:47 PM
Sep 18
52 °FMostly cloudy.6 mph94%29.66 "Hg15 mi
11:00 PM52 °FOvercast.5 mph94%29.65 "Hg15 mi
10:00 PM52 °FOvercast.No wind88%29.65 "Hg15 mi
9:00 PM55 °FPartly cloudy.5 mph82%29.65 "Hg15 mi
8:00 PM57 °FPartly sunny.5 mph72%29.63 "Hg15 mi
Weather by CustomWeather, © 2014

See weather overviewHow to use our weather pages